Weather in Manizales

Colombia     5˚04′08″N   75˚31′15″W
temp.,
°C
wind,
m/s
gust,
m/s
humid.,
%
clouds,
%
prec.,
mm/h
press.,
hPa
HPBL,
m
17 january, sun
sun1701:00+10˚ese228754 0.2 101427
04:00+10˚ese228099 0.1 101325
07:00+11˚ese227185 0.1 101432
10:00+18˚wnw226346 0.0 1014732
13:00+19˚wnw226936 1.1 1011837
16:00+17˚w118286 1.8 1008675
19:00+12˚ese229590 3.6 101133
22:00+11˚ese229048 0.8 101427
18 january, mon
mon1801:00+11˚ese228733 1.2 101424
04:00+10˚ese128674 0.4 101323
07:00+11˚ese228054 0.4 101527
10:00+18˚wnw22659 0.0 1015728
13:00+18˚wnw227331 0.9 1011791
16:00+17˚w128037 1.8 1009620
19:00+12˚ese339438 4.0 101241
22:00+11˚ese22860 1.0 101430
19 january, tue
tue1901:00+11˚ese227812 1.3 101427
04:00+10˚ese227550 0.1 101328
07:00+11˚ese226851 0.1 101537
10:00+18˚wnw226111 0.0 1014651
13:00+21˚wnw325410 0.2 10101075
16:00+19˚wnw226231 0.5 1008975
19:00+13˚e229126 0.9 101133
22:00+12˚ese227419 0.3 101431
20 january, wed
wed2001:00+11˚ese227612 0.6 101328
04:00+10˚ese127912 0.1 101227
07:00+11˚ese127717 0.1 101432
10:00+18˚wnw226719 0.0 1013712
13:00+18˚wnw227444 0.6 1010737
16:00+17˚wsw128459 1.4 1008562
19:00+13˚e229666 2.3 101151
22:00+12˚ese2291100 0.4 101424
21 january, thu
thu2101:00+11˚ese228794 0.4 101326
04:00+10˚ese228153 0.1 101226
07:00+11˚ese227964 0.1 101427
10:00+18˚wnw227028 0.0 1014688
13:00+17˚wnw128452 1.1 1011463
16:00+17˚w018635 3.4 1009453
19:00+13˚e229653 5.4 101147
22:00+11˚ese229271 0.8 101427